EW3845 Weather Reports


time (UTC)temp
C
wind
direction
speed
KPH
gust
KPH
rain 1hr
cm
rain 24hr
cm
rain mn
cm
humidity
%
barometer
mb
20260509000012 9 22 0.0 0.0 0.00 0.00 0.00 85 1017.8
20260508234510 10 22 0.0 0.0 0.00 0.00 0.00 85 1017.9
20260508233008 10 22 0.0 0.0 0.00 0.00 0.00 84 1018.0
20260508231506 10 22 0.0 0.0 0.00 0.00 0.00 83 1017.8
20260508230004 10 22 0.0 0.0 0.00 0.00 0.00 83 1017.7
20260508224500 11 22 0.0 0.0 0.00 0.00 0.00 82 1017.7
20260508223059 11 22 0.0 0.0 0.00 0.00 0.00 81 1017.7
20260508221557 11 22 0.0 0.0 0.00 0.00 0.00 81 1017.6
20260508220055 12 22 0.0 0.0 0.00 0.00 0.00 80 1017.7
20260508214554 12 22 0.0 0.0 0.00 0.00 0.00 79 1017.7
20260508213053 12 22 0.0 0.0 0.00 0.00 0.00 77 1017.8
20260508211554 12 22 0.0 0.0 0.00 0.00 0.00 76 1017.8
20260508210052 12 27 0.0 0.0 0.00 0.00 0.00 75 1017.8
20260508204555 13 19 0.0 0.0 0.00 0.00 0.00 74 1017.7
20260508203050 13 29 0.0 0.0 0.00 0.00 0.00 73 1017.6
20260508201549 12 22 0.0 0.0 0.00 0.00 0.00 74 1017.5
20260508200106 12 22 0.0 0.0 0.00 0.00 0.00 73 1017.4
20260508194549 13 22 0.0 0.0 0.00 0.00 0.00 72 1017.4
20260508193119 13 22 0.0 0.0 0.00 0.00 0.00 72 1017.3
20260508191645 14 22 0.0 0.0 0.00 0.00 0.00 71 1017.1
20260508191545 14 22 0.0 0.0 0.00 0.00 0.00 71 1017.1
20260508191052 14 22 0.0 0.0 0.00 0.00 0.00 70 1017.1
20260508190606 15 22 0.0 0.0 0.00 0.00 0.00 70 1017.0
20260508190054 15 22 0.0 0.0 0.00 0.00 0.00 69 1017.0
20260508190012 15 22 0.0 0.0 0.00 0.00 0.00 69 1016.9
20260508185605 15 22 0.0 0.0 0.00 0.00 0.00 69 1016.9
20260508185049 15 22 0.0 0.0 0.00 0.00 0.00 68 1016.9
20260508184601 15 22 0.0 0.0 0.00 0.00 0.00 68 1016.8
20260508184050 15 22 0.0 0.0 0.00 0.00 0.00 67 1016.8
20260508183002 15 22 0.0 0.0 0.00 0.00 0.00 66 1016.6
20260508182600 16 22 0.0 0.0 0.00 0.00 0.00 65 1016.7
20260508182047 16 22 0.0 0.0 0.00 0.00 0.00 65 1016.6
20260508181600 16 22 0.0 0.0 0.00 0.00 0.00 64 1016.6
20260508181049 16 22 0.0 0.0 0.00 0.00 0.00 64 1016.6
20260508180601 16 22 0.0 0.0 0.00 0.00 0.00 64 1016.6
20260508180145 16 22 0.0 0.0 0.00 0.00 0.00 64 1016.5
20260508180044 16 22 0.0 0.0 0.00 0.00 0.00 64 1016.5
20260508175556 16 22 0.0 0.0 0.00 0.00 0.00 63 1016.4
20260508175105 16 22 0.0 0.0 0.00 0.00 0.00 62 1016.4
20260508174658 16 22 0.0 0.0 0.00 0.00 0.00 61 1016.4
20260508174555 16 22 0.0 0.0 0.00 0.00 0.00 61 1016.5
20260508174042 16 22 0.0 0.0 0.00 0.00 0.00 60 1016.4
20260508173555 17 22 0.0 0.0 0.00 0.00 0.00 60 1016.4
20260508173144 16 22 0.0 0.0 0.00 0.00 0.00 59 1016.3
20260508173042 17 22 0.0 0.0 0.00 0.00 0.00 59 1016.4
20260508172555 17 22 0.0 0.0 0.00 0.00 0.00 60 1016.3
20260508172040 17 20 0.0 0.0 0.00 0.00 0.00 59 1016.2
20260508171554 17 22 0.0 0.0 0.00 0.00 0.00 59 1016.2
20260508171501 17 22 0.0 0.0 0.00 0.00 0.00 59 1016.2
20260508171100 17 22 0.0 0.0 0.00 0.00 0.00 58 1016.2
20260508170609 17 22 0.0 0.0 0.00 0.00 0.00 58 1016.2
20260508170156 17 21 0.0 0.0 0.00 0.00 0.00 59 1016.1
20260508170054 17 21 0.0 0.0 0.00 0.00 0.00 59 1016.2
20260508165544 17 20 0.0 0.0 0.00 0.00 0.00 58 1016.2
20260508165054 17 26 0.0 0.0 0.00 0.00 0.00 56 1016.2
20260508164528 17 24 0.0 0.0 0.00 0.00 0.00 56 1016.1
20260508163028 17 27 0.0 0.0 0.00 0.00 0.00 56 1016.1
20260508161526 17 19 0.0 0.0 0.00 0.00 0.00 57 1016.2
20260508160026 17 25 0.0 0.0 0.00 0.00 0.00 56 1016.3
20260508154541 17 28 0.0 0.0 0.00 0.00 0.00 56 1016.3
20260508153025 18 29 0.0 0.0 0.00 0.00 0.00 56 1016.4
20260508151524 18 42 0.0 0.0 0.00 0.00 0.00 58 1016.4
20260508150031 17 26 0.0 0.0 0.00 0.00 0.00 59 1016.5
20260508144523 17 28 0.0 0.0 0.00 0.00 0.00 59 1016.5
20260508143023 17 24 0.0 0.0 0.00 0.00 0.00 57 1016.7
20260508141529 17 23 0.0 0.0 0.00 0.00 0.00 59 1016.7
20260508140022 17 28 0.0 0.0 0.00 0.00 0.00 60 1016.8
20260508134521 17 28 0.0 0.0 0.00 0.00 0.00 60 1016.9
20260508133039 18 25 0.0 0.0 0.00 0.00 0.00 60 1016.8
20260508131520 18 18 0.0 0.0 0.00 0.00 0.00 57 1016.8
20260508130022 19 32 0.0 0.0 0.00 0.00 0.00 60 1016.8
20260508124524 18 23 0.0 0.0 0.00 0.00 0.00 57 1016.9
20260508123031 19 32 0.0 0.0 0.00 0.00 0.00 59 1016.9
20260508121520 18 29 0.0 0.0 0.00 0.00 0.00 62 1016.9
20260508120018 17 42 0.0 0.0 0.00 0.00 0.00 63 1016.9
20260508114516 17 42 0.0 0.0 0.00 0.00 0.00 58 1017.0
20260508113020 18 44 0.0 0.0 0.00 0.00 0.00 60 1016.9
20260508111515 19 46 0.0 0.0 0.00 0.00 0.00 61 1017.0
20260508110013 19 46 0.0 0.0 0.00 0.00 0.00 62 1017.0
20260508104509 18 61 0.0 0.0 0.00 0.00 0.00 62 1017.1
20260508103008 18 156 0.0 0.0 0.00 0.00 0.00 62 1017.1
20260508101505 17 11 0.0 0.0 0.00 0.00 0.00 66 1017.1
20260508100112 16 39 0.0 0.0 0.00 0.00 0.00 68 1017.2
20260508094607 16 142 0.0 0.0 0.00 0.00 0.00 70 1017.3
20260508093055 16 22 0.0 0.0 0.00 0.00 0.00 74 1017.3
20260508092053 16 24 0.0 0.0 0.00 0.00 0.00 78 1017.3
20260508091545 15 26 0.0 0.0 0.00 0.00 0.00 77 1017.3
20260508091040 15 22 0.0 0.0 0.00 0.00 0.00 79 1017.4
20260508090552 15 49 0.0 0.0 0.00 0.00 0.00 79 1017.4
20260508090158 14 22 0.0 0.0 0.00 0.00 0.00 81 1017.3
20260508090058 15 20 0.0 0.0 0.00 0.00 0.00 81 1017.4
20260508085551 14 29 0.0 0.0 0.00 0.00 0.00 82 1017.4
20260508085059 14 172 0.0 0.0 0.00 0.00 0.00 83 1017.4
20260508084653 13 23 0.0 0.0 0.00 0.00 0.00 84 1017.3
20260508084552 13 11 0.0 0.0 0.00 0.00 0.00 84 1017.4
20260508083057 12 15 0.0 0.0 0.00 0.00 0.00 85 1017.4
20260508081605 12 139 0.0 0.0 0.00 0.00 0.00 86 1017.3
20260508080052 12 27 0.0 0.0 0.00 0.00 0.00 87 1017.3
20260508074550 11 158 0.0 0.0 0.00 0.00 0.00 89 1017.4
20260508073104 11 146 0.0 0.0 0.00 0.00 0.00 90 1017.4
20260508071547 10 32 0.0 0.0 0.00 0.00 0.00 90 1017.4
20260508070048 10 31 0.0 0.0 0.00 0.00 0.00 90 1017.2
20260508064547 10 51 0.0 0.0 0.00 0.00 0.00 91 1017.1
20260508063043 10 22 0.0 0.0 0.00 0.00 0.00 91 1016.9
20260508061543 9 47 0.0 0.0 0.00 0.00 0.00 91 1016.8
20260508060058 9 44 0.0 0.0 0.00 0.00 0.00 91 1016.7
20260508054539 8 68 0.0 0.0 0.00 0.00 0.00 91 1016.8
20260508053037 8 68 0.0 0.0 0.00 0.00 0.00 91 1016.6
20260508051545 8 32 0.0 0.0 0.00 0.00 0.00 91 1016.7
20260508050036 8 9 0.0 0.0 0.00 0.00 0.00 91 1016.4
20260508044538 8 38 0.0 0.0 0.00 0.00 0.00 91 1016.3
20260508043034 8 39 0.0 0.0 0.00 0.00 0.00 91 1016.3
20260508041533 8 112 0.0 0.0 0.00 0.00 0.00 90 1016.3
20260508040045 8 30 0.0 0.0 0.00 0.00 0.00 90 1016.2
20260508034543 8 24 0.0 0.0 0.00 0.00 0.00 90 1016.3
20260508033032 8 19 0.0 0.0 0.00 0.00 0.00 90 1016.2
20260508031536 8 19 0.0 0.0 0.00 0.00 0.00 90 1016.1
20260508030031 8 19 0.0 0.0 0.00 0.00 0.00 90 1016.1
20260508024552 8 19 0.0 0.0 0.00 0.00 0.00 90 1016.1
20260508023030 8 19 0.0 0.0 0.00 0.00 0.00 89 1016.2
20260508021529 8 19 0.0 0.0 0.00 0.00 0.00 89 1016.1
20260508020029 8 19 0.0 0.0 0.00 0.00 0.00 89 1016.1
20260508014527 8 19 0.0 0.0 0.00 0.00 0.00 89 1016.2
20260508013032 8 19 0.0 0.0 0.00 0.00 0.00 88 1016.1
20260508011530 8 19 0.0 0.0 0.00 0.00 0.00 87 1016.2
20260508010023 8 19 0.0 0.0 0.00 0.00 0.00 87 1016.2
20260508004537 9 19 0.0 0.0 0.00 0.00 0.00 86 1016.2
20260508003019 9 19 0.0 0.0 0.00 0.00 0.00 86 1016.2
20260508001529 10 19 0.0 0.0 0.00 0.00 0.00 86 1016.3